Regional Weather Roundup
Issued by NWS

Home | Current Version | Previous Version | Graphics & Text | Print | Product List | Glossary On
Versions: 1 2 3 4 5 6 7 8 9 10 11 12 13 14 15 16 17 18 19 20 21 22 23 24 25 26 27
000
ASUS43 KDMX 201107
RWRIA

WEATHER ROUNDUP FOR IOWA
NATIONAL WEATHER SERVICE DES MOINES IA
600 AM CDT SUN APR 20 2014

NOTE: "FAIR" INDICATES FEW OR NO CLOUDS BELOW 12,000 FEET WITH NO
SIGNIFICANT WEATHER AND/OR OBSTRUCTIONS TO VISIBILITY.

* - THESE STATIONS ARE NOT NWS STATIONS...THUS NOT UNDER NWS
QUALITY CONTROL.  THEY ALSO DO NOT REPORT WEATHER SUCH
AS PRECIPITATION OR FOG.

IAZ001>003-012>014-020>022-031>034-043>046-201200-
   NORTHWEST IOWA

CITY           SKY/WX    TMP DP  RH WIND       PRES   REMARKS
CARROLL *      PTCLDY    61  45  55 S14       29.98S
CHEROKEE *     MOCLDY    55  48  76 S3        29.97S
DENISON *      PTCLDY    59  45  58 SW7G14    29.97R
LE MARS *      PTCLDY    52  48  87 CALM      29.97R
ORANGE CITY *  CLEAR     54  41  62 E7        29.98R
SHELDON *      PTCLDY    50  37  62 NE12      29.97F
SIOUX CITY     MOCLDY    57  46  66 SE8       29.96S
SPENCER        MOCLDY    51  44  77 NE7       29.99S
STORM LAKE *   MOCLDY    57  45  62 S6        29.99S
$$

IAZ055>058-069>071-079>083-090>094-201200-
   SOUTHWEST IOWA

CITY           SKY/WX    TMP DP  RH WIND       PRES   REMARKS
ATLANTIC *     CLEAR     59  46  63 S12       30.00S
AUDUBON *      CLEAR     61  43  51 S8        30.00F
CLARINDA *     CLEAR     57  46  67 S8        30.04S
COUNCIL BLFS * CLEAR     63  48  59 S9G18     29.97S
CRESTON *      CLEAR     57  46  67 S16       30.04F
HARLAN  *      PTCLDY    59  46  63 S12       30.02S
LAMONI         PTCLDY    56  43  61 S12       30.06F
RED OAK *      PTCLDY    59  46  63 S9        30.01S
SHENANDOAH *   CLEAR     61  46  59 S15       30.01F
$$

IAZ047>049-059>061-072>074-084-201200-
   CENTRAL IOWA

CITY           SKY/WX    TMP DP  RH WIND       PRES   REMARKS
AMES           CLOUDY    54  49  83 SE7       30.04S
ANKENY *       MOCLDY    57  45  62 SE6       30.04S
CHARITON *     CLOUDY    55  43  62 S9        30.06F
DES MOINES     MOCLDY    58  44  60 S10       30.04F
GRINNELL*      CLOUDY    55  43  62 S8        30.08S
KNOXVILLE *    PTCLDY    57  41  54 S7        30.06S
MARSHALLTOWN   RAIN      55  46  71 S9        30.06S
NEWTON *       PTCLDY    54  43  66 SE9       30.07S
PELLA *        CLOUDY    57  43  58 S7        30.08S
PERRY *        MOCLDY    57  43  58 S9        30.01F
$$

IAZ004>006-015-016-023>025-035-036-201200-
   NORTH CENTRAL IOWA

CITY           SKY/WX    TMP DP  RH WIND       PRES   REMARKS
ALGONA *       CLOUDY    59  46  63 S9        30.01S
CLARION *      CLOUDY    57  50  77 S10       30.02S
ESTHERVILLE    MOCLDY    47  45  93 NE5       30.00S
FORT DODGE *   MOCLDY    61  46  59 S9        30.00F
MASON CITY     CLOUDY    56  47  71 S5        30.04S
FOREST CITY *  CLOUDY    55  46  71 CALM      30.02R
IOWA FALLS *   CLOUDY    57  46  67 SW8       30.06R
$$

IAZ007>011-017>019-026>030-037>042-050>054-066-201200-
   NORTHEAST IOWA

CITY           SKY/WX    TMP DP  RH WIND       PRES   REMARKS
CEDAR RAPIDS   MOCLDY    56  41  57 S10       30.09F
CHARLES CITY * CLOUDY    55  45  67 S12       30.07R
CLINTON *      MOCLDY    46  36  66 SE9       30.18S
DECORAH *      CLOUDY    59  41  51 S10G20    30.07S
DUBUQUE        CLOUDY    51  39  63 S12       30.12F
MONTICELLO *   MOCLDY    55  43  62 SE8       30.11F
OELWEIN *      MOCLDY   N/A N/A N/A S14       30.08F
WATERLOO       CLOUDY    57  40  52 S10       30.06F
$$

IAZ064-065-067-068-078-201200-
   EAST CENTRAL IOWA

CITY           SKY/WX    TMP DP  RH WIND       PRES   REMARKS
DAVENPORT      PTCLDY    56  37  49 S14       30.15F
IOWA CITY      CLOUDY    52  42  69 CALM      30.12F
MT. PLEASANT * MOCLDY    55  41  58 S9        30.13S
MUSCATINE *    CLEAR     43  39  87 CALM      30.13F
QUAD CITIES    PTCLDY    51  36  56 S6        30.15S
$$

IAZ062-063-075>077-085>089-095>099-201200-
   SOUTHEAST IOWA

CITY           SKY/WX    TMP DP  RH WIND       PRES   REMARKS
BURLINGTON     MOCLDY    56  41  57 S12       30.13F
FAIRFIELD *    CLEAR     55  41  58 S9        30.11S
FORT MADISON * CLEAR     55  43  62 S10       30.14F
KEOKUK *       CLEAR     61  41  48 S8        30.13S
OSKALOOSA *      N/A     52  43  71 S9        30.09S
CENTERVILLE *  CLEAR     54  41  62 SE6       30.10S
OTTUMWA        MOCLDY    54  41  61 S12       30.08F
WASHINGTON *   CLEAR     55  43  62 S10       30.11F
$$

ABBREVIATIONS USED IN REMARKS
   TC - TEMPERATURES IN CELSIUS
  WCI - WIND CHILL INDEX
   HX - HEAT INDEX
  VSB - VISIBILITY
$$




USA.gov is the U.S. government's official web portal to all federal, state and local government web resources and services.